,,PressureMeas_1m,,PRMeasQMR101_1,,RHStat155_1m_1,,SRMeasQMS101R_1m,,TAStat155_1m_1,,GenWind_1,,GenWind_1,
2019-08-13, 00:00:06,VALID,918.755,VALID,0.0,VALID,97.53,VALID,0.021,VALID,20.917,VALID,240.0,VALID,0.0,
2019-08-13, 00:01:06,VALID,918.739,VALID,0.0,VALID,97.118,VALID,0.035,VALID,20.908,VALID,261.0,VALID,0.0,
2019-08-13, 00:02:06,VALID,918.715,VALID,0.0,VALID,96.99,VALID,0.022,VALID,20.914,VALID,247.0,VALID,0.0,
2019-08-13, 00:03:06,VALID,918.678,VALID,0.0,VALID,96.992,VALID,0.007,VALID,20.929,VALID,318.0,VALID,0.0,
2019-08-13, 00:04:06,VALID,918.664,VALID,0.0,VALID,97.07,VALID,-0.02,VALID,20.943,VALID,4.0,VALID,0.0,
2019-08-13, 00:05:06,VALID,918.661,VALID,0.0,VALID,97.155,VALID,-0.001,VALID,20.943,VALID,6.0,VALID,0.0,
2019-08-13, 00:06:06,VALID,918.64,VALID,0.0,VALID,97.312,VALID,-0.004,VALID,20.932,VALID,352.0,VALID,0.0,
2019-08-13, 00:07:06,VALID,918.648,VALID,0.0,VALID,97.352,VALID,0.004,VALID,20.909,VALID,329.0,VALID,0.0,
2019-08-13, 00:08:06,VALID,918.651,VALID,0.0,VALID,97.393,VALID,-0.018,VALID,20.881,VALID,335.0,VALID,0.0,
2019-08-13, 00:09:06,VALID,918.67,VALID,0.0,VALID,97.319,VALID,-0.006,VALID,20.834,VALID,353.0,VALID,0.0,
2019-08-13, 00:10:06,VALID,918.683,VALID,0.0,VALID,97.081,VALID,-0.01,VALID,20.824,VALID,19.0,VALID,0.0,
2019-08-13, 00:11:06,VALID,918.673,VALID,0.0,VALID,97.158,VALID,-0.02,VALID,20.872,VALID,19.0,VALID,0.0,
2019-08-13, 00:12:06,VALID,918.677,VALID,0.0,VALID,97.167,VALID,-0.012,VALID,20.894,VALID,21.0,VALID,0.0,
2019-08-13, 00:13:06,VALID,918.669,VALID,0.0,VALID,97.258,VALID,-0.0,VALID,20.918,VALID,25.0,VALID,0.0,
2019-08-13, 00:14:06,VALID,918.638,VALID,0.0,VALID,97.279,VALID,-0.019,VALID,20.928,VALID,25.0,VALID,0.0,
2019-08-13, 00:15:06,VALID,918.631,VALID,0.0,VALID,97.332,VALID,-0.008,VALID,20.936,VALID,25.0,VALID,0.0,
2019-08-13, 00:16:06,VALID,918.639,VALID,0.0,VALID,97.424,VALID,-0.012,VALID,20.956,VALID,25.0,VALID,0.0,
2019-08-13, 00:17:06,VALID,918.63,VALID,0.0,VALID,97.434,VALID,-0.013,VALID,20.959,VALID,25.0,VALID,0.0,
2019-08-13, 00:18:06,VALID,918.611,VALID,0.0,VALID,97.408,VALID,-0.004,VALID,20.935,VALID,25.0,VALID,0.0,
2019-08-13, 00:19:06,VALID,918.572,VALID,0.0,VALID,97.446,VALID,0.014,VALID,20.913,VALID,11.0,VALID,0.0,
2019-08-13, 00:20:07,VALID,918.556,VALID,0.0,VALID,97.554,VALID,0.011,VALID,20.884,VALID,359.0,VALID,0.0,
2019-08-13, 00:21:07,VALID,918.563,VALID,0.0,VALID,97.654,VALID,-0.001,VALID,20.844,VALID,2.0,VALID,0.0,
2019-08-13, 00:22:07,VALID,918.563,VALID,0.0,VALID,97.812,VALID,0.019,VALID,20.837,VALID,11.0,VALID,0.0,
2019-08-13, 00:23:07,VALID,918.585,VALID,0.0,VALID,97.885,VALID,0.015,VALID,20.817,VALID,6.0,VALID,0.0,
2019-08-13, 00:24:07,VALID,918.614,VALID,0.0,VALID,97.94,VALID,0.016,VALID,20.792,VALID,11.0,VALID,0.0,
2019-08-13, 00:25:07,VALID,918.596,VALID,0.0,VALID,97.93,VALID,0.01,VALID,20.75,VALID,14.0,VALID,0.0,
2019-08-13, 00:26:07,VALID,918.584,VALID,0.0,VALID,97.935,VALID,0.017,VALID,20.707,VALID,14.0,VALID,0.0,
2019-08-13, 00:27:07,VALID,918.585,VALID,0.0,VALID,97.886,VALID,-0.002,VALID,20.654,VALID,13.0,VALID,0.0,
2019-08-13, 00:28:07,VALID,918.587,VALID,0.0,VALID,97.897,VALID,0.007,VALID,20.614,VALID,9.0,VALID,0.0,
2019-08-13, 00:29:07,VALID,918.579,VALID,0.0,VALID,97.978,VALID,0.005,VALID,20.583,VALID,18.0,VALID,0.0,
2019-08-13, 00:30:07,VALID,918.583,VALID,0.0,VALID,97.953,VALID,-0.0,VALID,20.533,VALID,357.0,VALID,0.0,
2019-08-13, 00:31:07,VALID,918.569,VALID,0.0,VALID,97.934,VALID,0.012,VALID,20.486,VALID,352.0,VALID,0.0,
2019-08-13, 00:32:07,VALID,918.583,VALID,0.0,VALID,97.986,VALID,0.018,VALID,20.445,VALID,1.0,VALID,0.0,
2019-08-13, 00:33:07,VALID,918.583,VALID,0.0,VALID,98.058,VALID,0.026,VALID,20.413,VALID,3.0,VALID,0.0,
2019-08-13, 00:34:07,VALID,918.599,VALID,0.0,VALID,98.11,VALID,-0.0,VALID,20.382,VALID,6.0,VALID,0.0,
2019-08-13, 00:35:07,VALID,918.615,VALID,0.0,VALID,98.199,VALID,0.012,VALID,20.383,VALID,6.0,VALID,0.0,
2019-08-13, 00:36:07,VALID,918.615,VALID,0.0,VALID,98.204,VALID,0.007,VALID,20.372,VALID,357.0,VALID,0.0,
2019-08-13, 00:37:07,VALID,918.603,VALID,0.0,VALID,98.171,VALID,0.011,VALID,20.356,VALID,353.0,VALID,0.0,
2019-08-13, 00:38:07,VALID,918.598,VALID,0.0,VALID,98.177,VALID,0.006,VALID,20.344,VALID,344.0,VALID,0.0,
2019-08-13, 00:39:07,VALID,918.573,VALID,0.0,VALID,98.093,VALID,0.016,VALID,20.305,VALID,355.0,VALID,0.0,
2019-08-13, 00:40:07,VALID,918.569,VALID,0.0,VALID,98.061,VALID,0.018,VALID,20.278,VALID,351.0,VALID,0.0,
2019-08-13, 00:41:07,VALID,918.588,VALID,0.0,VALID,98.096,VALID,-0.008,VALID,20.251,VALID,353.0,VALID,0.0,
2019-08-13, 00:42:07,VALID,918.577,VALID,0.0,VALID,98.134,VALID,0.003,VALID,20.242,VALID,350.0,VALID,0.0,
2019-08-13, 00:43:07,VALID,918.553,VALID,0.0,VALID,98.306,VALID,0.019,VALID,20.25,VALID,360.0,VALID,0.0,
2019-08-13, 00:44:07,VALID,918.543,VALID,0.0,VALID,98.362,VALID,-0.002,VALID,20.245,VALID,353.0,VALID,0.0,
2019-08-13, 00:45:07,VALID,918.537,VALID,0.0,VALID,98.388,VALID,-0.001,VALID,20.233,VALID,358.0,VALID,0.0,
2019-08-13, 00:46:07,VALID,918.523,VALID,0.0,VALID,98.372,VALID,0.018,VALID,20.215,VALID,345.0,VALID,0.0,
2019-08-13, 00:47:07,VALID,918.513,VALID,0.0,VALID,98.471,VALID,0.009,VALID,20.26,VALID,353.0,VALID,0.0,
2019-08-13, 00:48:07,VALID,918.495,VALID,0.0,VALID,98.587,VALID,0.013,VALID,20.28,VALID,359.0,VALID,0.0,
2019-08-13, 00:49:07,VALID,918.485,VALID,0.0,VALID,98.574,VALID,-0.003,VALID,20.28,VALID,337.0,VALID,0.0,
2019-08-13, 00:50:07,VALID,918.49,VALID,0.0,VALID,98.585,VALID,0.009,VALID,20.3,VALID,335.0,VALID,0.0,
2019-08-13, 00:51:07,VALID,918.465,VALID,0.0,VALID,98.62,VALID,-0.002,VALID,20.324,VALID,319.0,VALID,0.0,
2019-08-13, 00:52:07,VALID,918.45,VALID,0.0,VALID,98.639,VALID,-0.001,VALID,20.353,VALID,21.0,VALID,0.0,
2019-08-13, 00:53:07,VALID,918.442,VALID,0.0,VALID,98.646,VALID,0.008,VALID,20.364,VALID,31.0,VALID,0.0,
2019-08-13, 00:54:07,VALID,918.416,VALID,0.0,VALID,98.563,VALID,-0.004,VALID,20.372,VALID,19.0,VALID,0.0,
2019-08-13, 00:55:07,VALID,918.389,VALID,0.0,VALID,98.412,VALID,-0.007,VALID,20.33,VALID,6.0,VALID,0.0,
2019-08-13, 00:56:07,VALID,918.349,VALID,0.0,VALID,98.375,VALID,-0.005,VALID,20.334,VALID,22.0,VALID,0.0,
2019-08-13, 00:57:07,VALID,918.343,VALID,0.0,VALID,98.48,VALID,0.005,VALID,20.382,VALID,4.0,VALID,0.0,
2019-08-13, 00:58:07,VALID,918.305,VALID,0.0,VALID,98.565,VALID,-0.007,VALID,20.397,VALID,345.0,VALID,0.0,
2019-08-13, 00:59:07,VALID,918.317,VALID,0.0,VALID,98.571,VALID,0.022,VALID,20.403,VALID,357.0,VALID,0.0,
2019-08-13, 01:00:07,VALID,918.31,VALID,0.0,VALID,98.542,VALID,0.01,VALID,20.386,VALID,357.0,VALID,0.0,
2019-08-13, 01:01:07,VALID,918.308,VALID,0.0,VALID,98.511,VALID,0.011,VALID,20.382,VALID,357.0,VALID,0.0,
2019-08-13, 01:02:07,VALID,918.311,VALID,0.0,VALID,98.537,VALID,-0.014,VALID,20.394,VALID,338.0,VALID,0.0,
2019-08-13, 01:03:07,VALID,918.293,VALID,0.0,VALID,98.479,VALID,-0.013,VALID,20.392,VALID,299.0,VALID,0.0,
2019-08-13, 01:04:07,VALID,918.29,VALID,0.0,VALID,98.501,VALID,-0.014,VALID,20.4,VALID,299.0,VALID,0.0,
2019-08-13, 01:05:07,VALID,918.283,VALID,0.0,VALID,98.467,VALID,-0.022,VALID,20.413,VALID,299.0,VALID,0.0,
2019-08-13, 01:06:07,VALID,918.266,VALID,0.0,VALID,98.417,VALID,0.009,VALID,20.409,VALID,299.0,VALID,0.0,
2019-08-13, 01:07:07,VALID,918.25,VALID,0.0,VALID,98.286,VALID,-0.01,VALID,20.37,VALID,299.0,VALID,0.0,
2019-08-13, 01:08:07,VALID,918.234,VALID,0.0,VALID,98.214,VALID,0.001,VALID,20.354,VALID,299.0,VALID,0.0,
2019-08-13, 01:09:07,VALID,918.235,VALID,0.0,VALID,98.203,VALID,-0.005,VALID,20.355,VALID,301.0,VALID,0.0,
2019-08-13, 01:10:07,VALID,918.229,VALID,0.0,VALID,98.231,VALID,0.002,VALID,20.349,VALID,318.0,VALID,0.0,
2019-08-13, 01:11:07,VALID,918.233,VALID,0.0,VALID,98.232,VALID,-0.005,VALID,20.342,VALID,318.0,VALID,0.0,
2019-08-13, 01:12:07,VALID,918.225,VALID,0.0,VALID,98.255,VALID,-0.001,VALID,20.339,VALID,318.0,VALID,0.0,
2019-08-13, 01:13:07,VALID,918.226,VALID,0.0,VALID,98.285,VALID,-0.011,VALID,20.351,VALID,318.0,VALID,0.0,
2019-08-13, 01:14:07,VALID,918.209,VALID,0.0,VALID,98.22,VALID,-0.014,VALID,20.334,VALID,318.0,VALID,0.0,
2019-08-13, 01:15:07,VALID,918.185,VALID,0.0,VALID,98.209,VALID,-0.005,VALID,20.323,VALID,318.0,VALID,0.0,
2019-08-13, 01:16:07,VALID,918.142,VALID,0.0,VALID,98.205,VALID,0.0,VALID,20.315,VALID,318.0,VALID,0.0,
2019-08-13, 01:17:07,VALID,918.125,VALID,0.0,VALID,98.156,VALID,0.004,VALID,20.27,VALID,318.0,VALID,0.0,
2019-08-13, 01:18:07,VALID,918.101,VALID,0.0,VALID,98.179,VALID,-0.004,VALID,20.251,VALID,318.0,VALID,0.0,
2019-08-13, 01:19:07,VALID,918.086,VALID,0.0,VALID,98.274,VALID,-0.002,VALID,20.247,VALID,315.0,VALID,0.0,
2019-08-13, 01:20:07,VALID,918.103,VALID,0.0,VALID,98.462,VALID,-0.011,VALID,20.263,VALID,281.0,VALID,0.0,
2019-08-13, 01:21:07,VALID,918.111,VALID,0.0,VALID,98.592,VALID,0.002,VALID,20.27,VALID,269.0,VALID,0.0,
2019-08-13, 01:22:07,VALID,918.09,VALID,0.0,VALID,98.676,VALID,-0.015,VALID,20.271,VALID,269.0,VALID,0.0,
2019-08-13, 01:23:07,VALID,918.067,VALID,0.0,VALID,98.721,VALID,-0.005,VALID,20.261,VALID,269.0,VALID,0.0,
2019-08-13, 01:24:07,VALID,918.043,VALID,0.0,VALID,98.651,VALID,-0.008,VALID,20.187,VALID,269.0,VALID,0.0,
2019-08-13, 01:25:07,VALID,918.031,VALID,0.0,VALID,98.475,VALID,-0.007,VALID,20.119,VALID,269.0,VALID,0.0,
2019-08-13, 01:26:07,VALID,918.02,VALID,0.0,VALID,98.371,VALID,-0.012,VALID,20.096,VALID,269.0,VALID,0.0,
2019-08-13, 01:27:07,VALID,917.999,VALID,0.0,VALID,98.402,VALID,-0.019,VALID,20.109,VALID,269.0,VALID,0.0,
2019-08-13, 01:28:07,VALID,917.998,VALID,0.0,VALID,98.254,VALID,-0.006,VALID,20.04,VALID,269.0,VALID,0.0,
2019-08-13, 01:29:07,VALID,917.992,VALID,0.0,VALID,98.028,VALID,-0.029,VALID,19.977,VALID,269.0,VALID,0.0,
2019-08-13, 01:30:07,VALID,917.98,VALID,0.0,VALID,97.891,VALID,-0.006,VALID,19.948,VALID,269.0,VALID,0.0,
2019-08-13, 01:31:07,VALID,917.945,VALID,0.0,VALID,97.778,VALID,-0.005,VALID,19.91,VALID,269.0,VALID,0.0,
2019-08-13, 01:32:07,VALID,917.931,VALID,0.0,VALID,97.797,VALID,0.002,VALID,19.912,INVALID,360.0,VALID,0.0,
2019-08-13, 01:33:07,VALID,917.896,VALID,0.0,VALID,97.761,VALID,-0.009,VALID,19.834,VALID,269.0,VALID,0.0,
2019-08-13, 01:34:07,VALID,917.912,VALID,0.0,VALID,97.377,VALID,-0.012,VALID,19.703,VALID,269.0,VALID,0.0,
2019-08-13, 01:35:07,VALID,917.895,VALID,0.0,VALID,97.297,VALID,-0.002,VALID,19.638,VALID,269.0,VALID,0.0,
2019-08-13, 01:36:07,VALID,917.884,VALID,0.0,VALID,97.581,VALID,-0.013,VALID,19.619,VALID,269.0,VALID,0.0,
2019-08-13, 01:37:07,VALID,917.867,VALID,0.0,VALID,97.704,VALID,-0.012,VALID,19.59,VALID,269.0,VALID,0.0,
2019-08-13, 01:38:07,VALID,917.859,VALID,0.0,VALID,97.931,VALID,-0.008,VALID,19.6,VALID,269.0,VALID,0.0,
2019-08-13, 01:39:07,VALID,917.831,VALID,0.0,VALID,98.313,VALID,0.013,VALID,19.666,VALID,269.0,VALID,0.0,
2019-08-13, 01:40:07,VALID,917.818,VALID,0.0,VALID,98.465,VALID,0.004,VALID,19.657,VALID,194.0,VALID,0.0,
2019-08-13, 01:41:07,VALID,917.798,VALID,0.0,VALID,98.417,VALID,0.019,VALID,19.594,VALID,160.0,VALID,0.0,
2019-08-13, 01:42:07,VALID,917.792,VALID,0.0,VALID,98.493,VALID,0.01,VALID,19.548,VALID,160.0,VALID,0.0,
2019-08-13, 01:43:07,VALID,917.775,VALID,0.0,VALID,98.399,VALID,0.01,VALID,19.452,VALID,157.0,VALID,0.0,
2019-08-13, 01:44:07,VALID,917.766,VALID,0.0,VALID,98.343,VALID,0.017,VALID,19.384,VALID,144.0,VALID,0.0,
2019-08-13, 01:45:07,VALID,917.75,VALID,0.0,VALID,98.454,VALID,0.006,VALID,19.362,VALID,144.0,VALID,0.0,
2019-08-13, 01:46:07,VALID,917.764,VALID,0.0,VALID,98.414,VALID,0.029,VALID,19.294,VALID,139.0,VALID,0.0,
2019-08-13, 01:47:07,VALID,917.758,VALID,0.0,VALID,98.297,VALID,0.011,VALID,19.21,VALID,118.0,VALID,0.0,
2019-08-13, 01:48:07,VALID,917.749,VALID,0.0,VALID,98.258,VALID,0.011,VALID,19.156,VALID,118.0,VALID,0.0,
2019-08-13, 01:49:07,VALID,917.736,VALID,0.0,VALID,98.327,VALID,-0.005,VALID,19.147,VALID,119.0,VALID,0.0,
2019-08-13, 01:50:07,VALID,917.711,VALID,0.0,VALID,98.489,VALID,0.008,VALID,19.168,VALID,118.0,VALID,0.0,
2019-08-13, 01:51:07,VALID,917.694,VALID,0.0,VALID,98.575,VALID,0.002,VALID,19.134,VALID,117.0,VALID,0.0,
2019-08-13, 01:52:07,VALID,917.691,VALID,0.0,VALID,98.713,VALID,0.007,VALID,19.171,VALID,125.0,VALID,0.0,
2019-08-13, 01:53:07,VALID,917.7,VALID,0.0,VALID,98.846,VALID,0.015,VALID,19.198,VALID,131.0,VALID,0.0,
2019-08-13, 01:54:07,VALID,917.707,VALID,0.0,VALID,99.047,VALID,0.011,VALID,19.31,VALID,145.0,VALID,0.0,
2019-08-13, 01:55:07,VALID,917.69,VALID,0.0,VALID,99.256,VALID,-0.01,VALID,19.416,VALID,158.0,VALID,0.0,
2019-08-13, 01:56:07,VALID,917.695,VALID,0.0,VALID,99.328,VALID,-0.008,VALID,19.487,VALID,156.0,VALID,0.0,
2019-08-13, 01:57:07,VALID,917.686,VALID,0.0,VALID,99.398,VALID,-0.009,VALID,19.554,VALID,160.0,VALID,0.0,
2019-08-13, 01:58:07,VALID,917.669,VALID,0.0,VALID,99.4,VALID,0.006,VALID,19.552,VALID,138.0,VALID,0.0,
2019-08-13, 01:59:07,VALID,917.667,VALID,0.0,VALID,99.46,VALID,0.014,VALID,19.591,VALID,137.0,VALID,0.0,
2019-08-13, 02:00:07,VALID,917.648,VALID,0.0,VALID,99.491,VALID,0.017,VALID,19.636,VALID,131.0,VALID,0.0,
2019-08-13, 02:01:07,VALID,917.64,VALID,0.0,VALID,99.478,VALID,0.018,VALID,19.619,VALID,126.0,VALID,0.0,
2019-08-13, 02:02:07,VALID,917.632,VALID,0.0,VALID,99.475,VALID,-0.002,VALID,19.602,VALID,128.0,VALID,0.0,
2019-08-13, 02:03:07,VALID,917.644,VALID,0.0,VALID,99.48,VALID,0.007,VALID,19.616,VALID,123.0,VALID,0.0,
2019-08-13, 02:04:07,VALID,917.634,VALID,0.0,VALID,99.491,VALID,-0.009,VALID,19.632,VALID,122.0,VALID,0.0,
2019-08-13, 02:05:07,VALID,917.649,VALID,0.0,VALID,99.524,VALID,-0.02,VALID,19.691,VALID,133.0,VALID,0.0,
2019-08-13, 02:06:07,VALID,917.638,VALID,0.0,VALID,99.57,VALID,-0.012,VALID,19.777,VALID,130.0,VALID,0.0,
2019-08-13, 02:07:07,VALID,917.626,VALID,0.0,VALID,99.554,VALID,-0.01,VALID,19.794,VALID,130.0,VALID,0.0,
2019-08-13, 02:08:07,VALID,917.594,VALID,0.0,VALID,99.555,VALID,-0.01,VALID,19.793,VALID,128.0,VALID,0.0,
2019-08-13, 02:09:07,VALID,917.55,VALID,0.0,VALID,99.554,VALID,-0.018,VALID,19.818,VALID,107.0,VALID,0.0,
2019-08-13, 02:10:07,VALID,917.525,VALID,0.0,VALID,99.563,VALID,-0.032,VALID,19.836,VALID,98.0,VALID,0.0,
2019-08-13, 02:11:07,VALID,917.534,VALID,0.0,VALID,99.571,VALID,-0.024,VALID,19.826,VALID,108.0,VALID,0.0,
2019-08-13, 02:12:07,VALID,917.528,VALID,0.0,VALID,99.58,VALID,-0.014,VALID,19.844,VALID,121.0,VALID,0.0,
2019-08-13, 02:13:07,VALID,917.528,VALID,0.0,VALID,99.581,VALID,-0.017,VALID,19.867,VALID,136.0,VALID,0.0,
2019-08-13, 02:14:07,VALID,917.525,VALID,0.0,VALID,99.587,VALID,-0.019,VALID,19.884,VALID,132.0,VALID,0.0,
2019-08-13, 02:15:07,VALID,917.509,VALID,0.0,VALID,99.598,VALID,-0.017,VALID,19.902,VALID,127.0,VALID,0.0,
2019-08-13, 02:16:07,VALID,917.48,VALID,0.0,VALID,99.603,VALID,-0.02,VALID,19.919,VALID,123.0,VALID,0.0,
2019-08-13, 02:17:07,VALID,917.456,VALID,0.0,VALID,99.606,VALID,0.003,VALID,19.946,VALID,131.0,VALID,0.0,
2019-08-13, 02:18:07,VALID,917.432,VALID,0.0,VALID,99.606,VALID,-0.013,VALID,19.948,VALID,103.0,VALID,0.0,
2019-08-13, 02:19:07,VALID,917.421,VALID,0.0,VALID,99.608,VALID,-0.013,VALID,19.948,VALID,94.0,VALID,0.0,
2019-08-13, 02:20:07,VALID,917.406,VALID,0.0,VALID,99.595,VALID,-0.002,VALID,19.931,VALID,97.0,VALID,0.0,
2019-08-13, 02:21:07,VALID,917.399,VALID,0.0,VALID,99.605,VALID,0.006,VALID,19.92,VALID,95.0,VALID,0.0,
2019-08-13, 02:22:07,VALID,917.385,VALID,0.0,VALID,99.582,VALID,-0.002,VALID,19.901,VALID,94.0,VALID,0.0,
2019-08-13, 02:23:07,VALID,917.395,VALID,0.0,VALID,99.594,VALID,0.014,VALID,19.91,VALID,95.0,VALID,0.0,
2019-08-13, 02:24:07,VALID,917.419,VALID,0.0,VALID,99.594,VALID,0.005,VALID,19.881,VALID,91.0,VALID,0.0,
2019-08-13, 02:25:07,VALID,917.429,VALID,0.0,VALID,99.588,VALID,0.014,VALID,19.858,VALID,97.0,VALID,0.0,
2019-08-13, 02:26:07,VALID,917.466,VALID,0.0,VALID,99.598,VALID,0.001,VALID,19.851,VALID,90.0,VALID,0.0,
2019-08-13, 02:27:07,VALID,917.471,VALID,0.0,VALID,99.594,VALID,0.008,VALID,19.85,VALID,100.0,VALID,0.0,
2019-08-13, 02:28:06,VALID,917.48,VALID,0.0,VALID,99.595,VALID,-0.004,VALID,19.844,VALID,88.0,VALID,0.0,
2019-08-13, 02:29:06,VALID,917.494,VALID,0.0,VALID,99.587,VALID,0.016,VALID,19.831,VALID,93.0,VALID,0.0,
2019-08-13, 02:30:06,VALID,917.481,VALID,0.0,VALID,99.597,VALID,0.008,VALID,19.834,VALID,86.0,VALID,0.0,
2019-08-13, 02:31:06,VALID,917.475,VALID,0.0,VALID,99.594,VALID,-0.002,VALID,19.823,VALID,91.0,VALID,0.0,
2019-08-13, 02:32:06,VALID,917.437,VALID,0.0,VALID,99.604,VALID,0.001,VALID,19.815,VALID,80.0,VALID,0.0,
2019-08-13, 02:33:06,VALID,917.404,VALID,0.0,VALID,99.59,VALID,0.016,VALID,19.828,VALID,79.0,VALID,0.0,
2019-08-13, 02:34:06,VALID,917.383,VALID,0.0,VALID,99.597,VALID,-0.019,VALID,19.83,VALID,99.0,VALID,0.0,
2019-08-13, 02:35:06,VALID,917.344,VALID,0.0,VALID,99.599,VALID,-0.031,VALID,19.836,VALID,103.0,VALID,0.0,
2019-08-13, 02:36:06,VALID,917.329,VALID,0.0,VALID,99.595,VALID,-0.033,VALID,19.833,VALID,111.0,VALID,0.0,
2019-08-13, 02:37:06,VALID,917.298,VALID,0.0,VALID,99.609,VALID,-0.059,VALID,19.852,VALID,125.0,VALID,0.0,
2019-08-13, 02:38:06,VALID,917.29,VALID,0.0,VALID,99.605,VALID,-0.037,VALID,19.867,VALID,129.0,VALID,0.0,
2019-08-13, 02:39:06,VALID,917.265,VALID,0.0,VALID,99.571,VALID,-0.043,VALID,19.867,VALID,126.0,VALID,0.0,
2019-08-13, 02:40:06,VALID,917.238,VALID,0.0,VALID,99.571,VALID,-0.037,VALID,19.852,VALID,125.0,VALID,0.0,
2019-08-13, 02:41:06,VALID,917.211,VALID,0.0,VALID,99.55,VALID,-0.041,VALID,19.818,VALID,111.0,VALID,0.0,
2019-08-13, 02:42:06,VALID,917.194,VALID,0.0,VALID,99.517,VALID,-0.035,VALID,19.795,VALID,120.0,VALID,0.0,
2019-08-13, 02:43:06,VALID,917.154,VALID,0.0,VALID,99.539,VALID,-0.044,VALID,19.801,VALID,112.0,VALID,0.0,
2019-08-13, 02:44:06,VALID,917.136,VALID,0.0,VALID,99.535,VALID,-0.038,VALID,19.796,VALID,103.0,VALID,0.0,
2019-08-13, 02:45:06,VALID,917.124,VALID,0.0,VALID,99.524,VALID,-0.044,VALID,19.806,VALID,103.0,VALID,0.0,
2019-08-13, 02:46:06,VALID,917.112,VALID,0.0,VALID,99.53,VALID,-0.035,VALID,19.8,VALID,120.0,VALID,0.0,
2019-08-13, 02:47:06,VALID,917.115,VALID,0.0,VALID,99.518,VALID,-0.041,VALID,19.805,VALID,120.0,VALID,0.0,
2019-08-13, 02:48:06,VALID,917.126,VALID,0.0,VALID,99.522,VALID,-0.052,VALID,19.801,VALID,120.0,VALID,0.0,
2019-08-13, 02:49:06,VALID,917.108,VALID,0.0,VALID,99.518,VALID,0.022,VALID,19.804,VALID,117.0,VALID,0.0,
2019-08-13, 02:50:06,VALID,917.109,VALID,0.0,VALID,99.518,VALID,0.022,VALID,19.81,VALID,101.0,VALID,0.0,
2019-08-13, 02:51:06,VALID,917.14,VALID,0.0,VALID,99.501,VALID,0.019,VALID,19.83,VALID,106.0,VALID,0.0,
2019-08-13, 02:52:06,VALID,917.136,VALID,0.0,VALID,99.516,VALID,0.021,VALID,19.841,VALID,128.0,VALID,0.0,
2019-08-13, 02:53:06,VALID,917.152,VALID,0.0,VALID,99.502,VALID,0.034,VALID,19.851,VALID,128.0,VALID,0.0,
2019-08-13, 02:54:06,VALID,917.144,VALID,0.0,VALID,99.49,VALID,0.024,VALID,19.889,VALID,128.0,VALID,0.0,
2019-08-13, 02:55:06,VALID,917.125,VALID,0.0,VALID,99.468,VALID,0.003,VALID,19.893,VALID,128.0,VALID,0.0,
2019-08-13, 02:56:06,VALID,917.095,VALID,0.0,VALID,99.451,VALID,0.022,VALID,19.883,VALID,128.0,VALID,0.0,
2019-08-13, 02:57:06,VALID,917.091,VALID,0.0,VALID,99.413,VALID,0.033,VALID,19.87,VALID,128.0,VALID,0.0,
2019-08-13, 02:58:06,VALID,917.069,VALID,0.0,VALID,99.42,VALID,0.013,VALID,19.907,VALID,111.0,VALID,0.0,
2019-08-13, 02:59:06,VALID,917.067,VALID,0.0,VALID,99.407,VALID,0.023,VALID,19.927,VALID,96.0,VALID,0.0,
2019-08-13, 03:00:06,VALID,917.076,VALID,0.0,VALID,99.388,VALID,0.027,VALID,19.948,VALID,96.0,VALID,0.0,
2019-08-13, 03:01:06,VALID,917.068,VALID,0.0,VALID,99.399,VALID,0.018,VALID,19.981,VALID,96.0,VALID,0.0,
2019-08-13, 03:02:06,VALID,917.079,VALID,0.0,VALID,99.367,VALID,0.015,VALID,19.991,VALID,77.0,VALID,0.0,
2019-08-13, 03:03:06,VALID,917.077,VALID,0.0,VALID,99.351,VALID,0.021,VALID,19.995,VALID,56.0,VALID,0.0,
2019-08-13, 03:04:06,VALID,917.071,VALID,0.0,VALID,99.324,VALID,0.008,VALID,20.007,VALID,56.0,VALID,0.0,
2019-08-13, 03:05:06,VALID,917.067,VALID,0.0,VALID,99.266,VALID,0.008,VALID,20.005,VALID,56.0,VALID,0.0,
2019-08-13, 03:06:06,VALID,917.07,VALID,0.0,VALID,99.231,VALID,0.008,VALID,20.01,VALID,56.0,VALID,0.0,
2019-08-13, 03:07:06,VALID,917.036,VALID,0.0,VALID,99.165,VALID,0.002,VALID,20.027,VALID,55.0,VALID,0.0,
2019-08-13, 03:08:06,VALID,917.025,VALID,0.0,VALID,99.124,VALID,0.005,VALID,20.025,VALID,55.0,VALID,0.0,
2019-08-13, 03:09:06,VALID,916.982,VALID,0.0,VALID,99.107,VALID,0.003,VALID,20.036,VALID,55.0,VALID,0.0,
2019-08-13, 03:10:06,VALID,916.974,VALID,0.0,VALID,99.093,VALID,-0.016,VALID,20.037,VALID,55.0,VALID,0.0,
2019-08-13, 03:11:06,VALID,916.97,VALID,0.0,VALID,99.043,VALID,-0.017,VALID,20.03,VALID,55.0,VALID,0.0,
2019-08-13, 03:12:06,VALID,916.977,VALID,0.0,VALID,98.987,VALID,-0.01,VALID,20.022,VALID,55.0,VALID,0.0,
2019-08-13, 03:13:06,VALID,916.995,VALID,0.0,VALID,98.951,VALID,-0.007,VALID,20.009,VALID,55.0,VALID,0.0,
2019-08-13, 03:14:06,VALID,917.021,VALID,0.0,VALID,98.915,VALID,-0.007,VALID,20.001,VALID,55.0,VALID,0.0,
2019-08-13, 03:15:06,VALID,917.017,VALID,0.0,VALID,98.873,VALID,0.003,VALID,20.019,VALID,55.0,VALID,0.0,
2019-08-13, 03:16:06,VALID,917.025,VALID,0.0,VALID,98.846,VALID,-0.007,VALID,20.037,VALID,55.0,VALID,0.0,
2019-08-13, 03:17:06,VALID,917.012,VALID,0.0,VALID,98.805,VALID,0.008,VALID,20.045,VALID,55.0,VALID,0.0,
2019-08-13, 03:18:06,VALID,917.007,VALID,0.0,VALID,98.806,VALID,0.002,VALID,20.059,VALID,55.0,VALID,0.0,
2019-08-13, 03:19:06,VALID,917.007,VALID,0.0,VALID,98.789,VALID,0.009,VALID,20.069,VALID,55.0,VALID,0.0,
2019-08-13, 03:20:06,VALID,917.033,VALID,0.0,VALID,98.761,VALID,0.021,VALID,20.065,VALID,55.0,VALID,0.0,
2019-08-13, 03:21:06,VALID,917.024,VALID,0.0,VALID,98.672,VALID,0.024,VALID,20.051,VALID,55.0,VALID,0.0,
2019-08-13, 03:22:06,VALID,917.034,VALID,0.0,VALID,98.545,VALID,0.007,VALID,20.02,VALID,55.0,VALID,0.0,
2019-08-13, 03:23:06,VALID,917.041,VALID,0.0,VALID,98.372,VALID,0.012,VALID,20.006,VALID,56.0,VALID,0.0,
2019-08-13, 03:24:06,VALID,917.066,VALID,0.0,VALID,98.307,VALID,0.022,VALID,20.028,VALID,55.0,VALID,0.0,
2019-08-13, 03:25:06,VALID,917.069,VALID,0.0,VALID,98.357,VALID,0.027,VALID,20.074,VALID,49.0,VALID,0.0,
2019-08-13, 03:26:06,VALID,917.083,VALID,0.0,VALID,98.29,VALID,0.021,VALID,20.09,VALID,45.0,VALID,0.0,
2019-08-13, 03:27:06,VALID,917.055,VALID,0.0,VALID,98.234,VALID,0.039,VALID,20.107,VALID,45.0,VALID,0.0,
2019-08-13, 03:28:06,VALID,917.056,VALID,0.0,VALID,98.185,VALID,0.042,VALID,20.116,VALID,45.0,VALID,0.0,
2019-08-13, 03:29:06,VALID,917.054,VALID,0.0,VALID,98.037,VALID,0.029,VALID,20.107,VALID,45.0,VALID,0.0,
2019-08-13, 03:30:06,VALID,917.059,VALID,0.0,VALID,98.052,VALID,0.032,VALID,20.141,VALID,45.0,VALID,0.0,
2019-08-13, 03:31:06,VALID,917.062,VALID,0.0,VALID,98.016,VALID,0.041,VALID,20.165,VALID,45.0,VALID,0.0,
2019-08-13, 03:32:06,VALID,917.069,VALID,0.0,VALID,97.977,VALID,0.022,VALID,20.171,VALID,45.0,VALID,0.0,
2019-08-13, 03:33:06,VALID,917.089,VALID,0.0,VALID,97.815,VALID,0.032,VALID,20.146,VALID,45.0,VALID,0.0,
2019-08-13, 03:34:06,VALID,917.116,VALID,0.0,VALID,97.823,VALID,-0.006,VALID,20.155,VALID,45.0,VALID,0.0,
2019-08-13, 03:35:06,VALID,917.123,VALID,0.0,VALID,97.912,VALID,-0.01,VALID,20.168,VALID,37.0,VALID,0.0,
2019-08-13, 03:36:06,VALID,917.116,VALID,0.0,VALID,97.674,VALID,-0.016,VALID,20.111,VALID,36.0,VALID,0.0,
2019-08-13, 03:37:06,VALID,917.114,VALID,0.0,VALID,97.603,VALID,-0.022,VALID,20.109,VALID,36.0,VALID,0.0,
2019-08-13, 03:38:06,VALID,917.106,VALID,0.0,VALID,97.762,VALID,-0.016,VALID,20.117,VALID,36.0,VALID,0.0,
2019-08-13, 03:39:06,VALID,917.103,VALID,0.0,VALID,97.706,VALID,-0.011,VALID,20.083,VALID,36.0,VALID,0.0,
2019-08-13, 03:40:06,VALID,917.116,VALID,0.0,VALID,97.597,VALID,-0.015,VALID,20.053,VALID,36.0,VALID,0.0,
2019-08-13, 03:41:06,VALID,917.118,VALID,0.0,VALID,97.623,VALID,-0.016,VALID,20.029,VALID,36.0,VALID,0.0,
2019-08-13, 03:42:06,VALID,917.139,VALID,0.0,VALID,97.688,VALID,-0.005,VALID,20.001,VALID,46.0,VALID,0.0,
2019-08-13, 03:43:06,VALID,917.127,VALID,0.0,VALID,97.861,VALID,-0.015,VALID,20.002,VALID,54.0,VALID,0.0,